Location: Caracas
(10.5033°N, 66.8422°W)
Time: 22:06:33
(UTC-04:00)

Vanguard 2 Rocket - All Passes

Search period start: 23 January 2018 00:00
Search period end: 02 February 2018 00:00
Orbit: 556 x 3326 km, 32.9° (Epoch: 22 January)

Date Brightness Start Highest point End Pass type
(mag) Time Alt. Az. Time Alt. Az. Time Alt. Az.
23 Jan - 02:01:50 10° SSW 02:18:58 34° SE 02:34:03 10° E visible
23 Jan - 04:17:44 10° SW 04:38:01 78° SE 04:51:34 10° ENE visible
23 Jan - 06:39:00 10° W 06:54:58 46° NNW 07:04:39 10° NE daylight
23 Jan - 09:05:13 10° NW 09:11:17 16° NNW 09:15:50 10° NNE daylight
23 Jan - 13:39:07 10° NNW 13:42:45 27° NNE 13:46:12 10° E daylight
23 Jan - 15:52:14 10° W 15:55:37 26° SSW 15:59:50 10° SSE daylight
24 Jan - 01:02:00 10° SSW 01:16:28 25° SSE 01:30:42 10° E visible
24 Jan - 03:16:00 10° SW 03:36:06 61° SE 03:51:19 10° ENE visible
24 Jan - 05:35:13 10° WSW 05:54:00 63° NNW 06:05:39 10° NE visible
24 Jan - 08:00:16 10° WNW 08:10:38 24° NNW 08:17:37 10° NNE daylight
24 Jan - 10:26:26 10° NNW 10:27:30 10° N 10:28:31 10° N daylight
24 Jan - 12:40:10 10° NNW 12:43:19 17° NNE 12:46:03 10° ENE daylight
24 Jan - 14:52:39 10° WNW 14:56:29 51° SW 15:00:45 10° SE daylight
25 Jan - 00:03:22 10° S 00:13:51 17° SSE 00:24:56 10° ESE visible
25 Jan - 02:15:01 10° SSW 02:33:54 48° SE 02:50:14 10° ENE visible
25 Jan - 04:32:11 10° WSW 04:52:33 81° NW 05:06:14 10° NE visible
25 Jan - 06:55:21 10° W 07:09:48 35° NNW 07:19:00 10° NE daylight
25 Jan - 09:22:03 10° NW 09:26:55 14° NNW 09:30:46 10° NNE daylight
25 Jan - 11:40:46 10° NNW 11:43:29 13° N 11:45:48 10° NE daylight
25 Jan - 13:53:18 10° NW 13:57:32 69° NNE 14:01:30 10° ESE daylight
25 Jan - 16:09:50 10° SW 16:10:37 10° SSW 16:11:25 10° SSW daylight
26 Jan - 01:14:47 10° SSW 01:31:35 36° SE 01:48:01 10° E visible
26 Jan - 03:30:00 10° SW 03:50:42 81° SE 04:06:16 10° ENE visible
26 Jan - 05:50:55 10° W 06:08:39 48° NNW 06:20:02 10° NE visible
26 Jan - 08:17:21 10° WNW 08:26:06 20° NNW 08:32:17 10° NNE daylight
26 Jan - 10:40:06 10° NNW 10:43:17 13° N 10:45:55 10° NNE daylight
26 Jan - 12:53:54 10° NW 12:58:25 34° NNE 13:02:02 10° E daylight
26 Jan - 15:08:16 10° W 15:11:12 20° SSW 15:14:21 10° SSE daylight
27 Jan - 00:15:27 10° SSW 00:29:17 26° SE 00:44:10 10° E visible
27 Jan - 02:28:38 10° SW 02:48:32 64° SE 03:05:39 10° ENE visible
27 Jan - 04:47:15 10° WSW 05:07:07 63° NNW 05:20:41 10° NE visible
27 Jan - 07:12:15 10° WNW 07:25:00 28° NNW 07:33:31 10° NNE daylight
27 Jan - 09:37:47 10° NW 09:42:44 15° N 09:46:37 10° NNE daylight
27 Jan - 11:54:13 10° NNW 11:58:53 23° NNE 12:02:25 10° ENE daylight
27 Jan - 14:08:07 10° WNW 14:12:10 43° SW 14:15:57 10° SE daylight
27 Jan - 23:17:26 10° S 23:27:02 17° SE 23:37:48 10° ESE visible
28 Jan - 01:28:03 10° SSW 01:46:17 50° SE 02:04:08 10° ENE visible
28 Jan - 03:44:31 10° WSW 04:05:13 79° NW 04:20:54 10° NE visible
28 Jan - 06:07:17 10° W 06:23:37 37° NNW 06:34:29 10° NE visible
28 Jan - 08:34:02 10° NW 08:41:52 18° N 08:47:31 10° NNE daylight
28 Jan - 10:53:54 10° NNW 10:58:56 19° N 11:02:40 10° NE daylight
28 Jan - 13:08:13 10° NW 13:13:14 83° NNE 13:17:09 10° ESE daylight
29 Jan - 00:28:18 10° SSW 00:44:08 37° SE 01:01:26 10° E visible
29 Jan - 02:42:43 10° SW 03:03:01 83° SE 03:20:33 10° ENE visible
29 Jan - 05:02:59 10° W 05:21:54 49° NNW 05:35:07 10° NE visible
29 Jan - 07:29:16 10° WNW 07:40:37 24° NNW 07:48:25 10° NE daylight
29 Jan - 09:52:31 10° NW 09:58:34 18° N 10:02:58 10° NE daylight
29 Jan - 12:08:13 10° NW 12:14:02 44° NNE 12:18:05 10° E daylight
29 Jan - 14:24:00 10° W 14:26:42 17° SW 14:29:18 10° S daylight
29 Jan - 23:29:26 10° S 23:42:10 26° SE 23:57:04 10° E visible
30 Jan - 01:41:46 10° SW 02:00:44 67° SE 02:19:28 10° ENE visible
30 Jan - 03:59:38 10° WSW 04:19:51 62° NNW 04:35:22 10° NE visible
30 Jan - 06:24:08 10° WNW 06:39:01 31° NNW 06:49:09 10° NE visible
30 Jan - 08:49:49 10° NW 08:57:46 20° N 09:03:24 10° NE daylight
30 Jan - 11:07:49 10° NW 11:14:23 30° NNE 11:18:46 10° E daylight
30 Jan - 13:23:09 10° WNW 13:27:46 38° SW 13:31:29 10° SSE daylight
30 Jan - 22:32:04 10° S 22:40:23 16° SE 22:50:06 10° ESE visible
31 Jan - 00:41:38 10° SSW 00:58:35 51° SE 01:17:30 10° ENE visible
31 Jan - 02:57:18 10° WSW 03:17:32 78° NW 03:35:09 10° NE visible
31 Jan - 05:19:19 10° W 05:37:02 39° NNW 05:49:40 10° NE visible
31 Jan - 07:45:52 10° NW 07:56:30 23° N 08:03:51 10° NE daylight
31 Jan - 10:06:46 10° NW 10:14:16 25° NNE 10:19:15 10° ENE daylight
31 Jan - 12:22:38 10° WNW 12:28:50 85° SSW 12:33:02 10° SE daylight
31 Jan - 23:42:19 10° SSW 23:56:44 37° SE 00:14:19 10° E visible
01 Feb - 01:55:56 10° SW 02:15:08 85° SE 02:34:19 10° ENE visible
01 Feb - 04:15:21 10° W 04:34:46 50° NNW 04:49:50 10° NE visible
01 Feb - 06:41:04 10° WNW 06:54:47 27° NNW 07:04:15 10° NE daylight
01 Feb - 09:04:47 10° NW 09:13:39 24° N 09:19:34 10° ENE daylight
01 Feb - 11:21:58 10° NW 11:29:32 55° NNE 11:34:12 10° ESE daylight
01 Feb - 13:39:13 10° W 13:42:07 16° SW 13:44:41 10° S daylight
01 Feb - 22:43:54 10° S 22:55:13 25° SE 23:09:29 10° E visible
